Regional Weather Roundup
Issued by NWS

Home | Current Version | Previous Version | Graphics & Text | Print | Product List | Glossary Off
Versions: 1 2 3 4 5 6 7 8 9 10 11 12 13 14 15 16 17 18 19 20 21 22 23 24 25 26 27 28 29 30 31 32 33 34 35 36 37 38 39 40 41 42 43 44 45 46 47 48 49 50

000
ASUS43 KDTX 031101
RWRMI
MICHIGAN HOURLY REGIONAL WEATHER ROUNDUP
NATIONAL WEATHER SERVICE DETROIT/PONTIAC MI
700 AM EDT THU SEP 03 2015

NOTE: "FAIR" INDICATES FEW OR NO CLOUDS BELOW 12,000 FEET WITH NO
SIGNIFICANT WEATHER AND/OR OBSTRUCTION TO VISIBILITY.

MIZ047>049-052>055-059>063-066>070-074>076-081>083-031200-
SOUTHEAST LOWER MICHIGAN

CITY           SKY/WX    TMP DP  RH WIND       PRES   REMARKS
ADRIAN         PTCLDY    68  67  96 CALM      30.00R FOG
ALMA           MOCLDY    70  69  95 S5        29.95F
ANN ARBOR      CLEAR     67  65  93 CALM      29.98R FOG
BAD AXE        CLEAR     62  62  99 CALM      29.98R FOG
CARO           FOG       61  61 100 CALM      29.96F VSB 3/4
DETROIT CITY   PTCLDY    70  66  87 CALM      29.98R
DETROIT        MOCLDY    70  67  90 CALM      29.99R FOG
FLINT          CLEAR     69  65  86 CALM      29.97S FOG
GROSSE ILE     PTCLDY    70  68  94 CALM      29.97S FOG
HILLSDALE      PTCLDY    71  70  96 CALM      30.00S
HOWELL         CLEAR     68  67  96 CALM      29.98S FOG

CITY           SKY/WX    TMP DP  RH WIND       PRES   REMARKS
JACKSON        PTCLDY    67  66  97 CALM      29.99S FOG
LAMBERTVILLE   CLEAR     70  67  89 CALM      29.99R FOG
LANSING        PTCLDY    69  67  93 SE3       29.97S FOG
LAPEER         FAIR      63  63 100 CALM      29.98S FOG
MASON          CLEAR     67  65  91 S3        29.98S FOG
MONROE         CLEAR     67  66  96 N3        29.98R FOG
MT. CLEMENS    PTCLDY    67  65  95 N2        29.96R
PONTIAC        PTCLDY    66  65  96 CALM      29.98R
PORT HOPE        N/A     66  65  96 CALM      29.95S
PORT HURON     PTCLDY    64  64 100 CALM      29.98R FOG
TRI CITIES     CLEAR     67  64  90 E5        29.96F
MIDLAND        FAIR      67  66  96 CALM      29.95S
TROY           PTCLDY    71  67  89 CALM      30.00R
SAGINAW HB     PTCLDY    63  63 100 CALM      29.95F
$$
MIZ043>046-050>051-056>058-064>065-071>073-077>080-031200-
SOUTHWEST LOWER MICHIGAN

CITY           SKY/WX    TMP DP  RH WIND       PRES   REMARKS
BATTLE CREEK   PTCLDY    70  67  90 S6        29.98S
BENTON HARBOR  CLEAR     70  67  90 CALM      29.96S
BIG RAPIDS     CLOUDY    68  68  98 S3        29.94R FOG
COLDWATER      CLEAR     68  67  99 SW3       29.99S
FREMONT        FAIR      69  68  96 S3        29.92S
HOLLAND        PTCLDY    71  68  90 S5        29.95F FOG
GRAND RAPIDS   MOCLDY    71  69  93 S5        29.95F THUNDER FOG
IONIA          FAIR      70  69  96 SW3       29.95S
KALAMAZOO      PTCLDY    70  66  87 SW7       29.97F
LUDINGTON      RAIN      71  67  88 NW5G25    29.90R
MARSHALL         N/A    N/A N/A N/A MISG        N/A
MOUNT PLEASANT MOCLDY    67  65  94 E3        29.95S FOG
MUSKEGON       MOCLDY    74  68  81 SW10      29.92F
SOUTH HAVEN    CLEAR     72  68  87 SW3       29.95F
$$
MIZ016>042-031200-
NORTHERN LOWER MICHIGAN

CITY           SKY/WX    TMP DP  RH WIND       PRES   REMARKS
ALPENA         PTCLDY    62  60  93 SE3       29.95F
BEAVER ISLAND  LGT RAIN  65  63  95 E10       29.94F
BELLAIRE       HVY RAIN  66  64  93 E3        29.96R
CADILLAC       RAIN      69  67  94 S3        29.94S
CHARLEVOIX     RAIN      64  63  94 E9        29.97F
FRANKFORT        N/A     67  66  96 CALM      29.90S
GAYLORD        HVY RAIN  66  66 100 NE8       29.97S FOG
GRAYLING       CLOUDY    63  61  95 CALM      29.96S
HARBOR SPRINGS RAIN      65  63  93 NE6       29.96F
HOUGHTON LAKE  CLOUDY    64  63  96 SE3       29.97S
MANISTEE       CLOUDY    68  64  88 SE6       29.90F THUNDER
OSCODA         PTCLDY    63  63  99 CALM      29.95F
PELLSTON       HVY RAIN  67  63  87 VRB5      30.01R FOG
ROGERS CITY    CLOUDY    65  63  93 CALM      29.96S
TRAVERSE CITY  TSTM      69  67  93 NE5       29.92F FOG
$$
MIZ007>008-015-031200-
EASTERN UPPER MICHIGAN

CITY           SKY/WX    TMP DP  RH WIND       PRES   REMARKS
KINROSS        CLOUDY    63  63 100 W5        29.98R
MACKINAC ISLAN LGT RAIN  64  63  94 N6        29.97S
NEWBERRY       CLOUDY    63  62  95 E7        29.95S
S. S. MARIE    CLOUDY    66  63  90 CALM      29.96S
MUNISING         N/A     67  63  87 CALM      29.94R
$$
MIZ004>006-011>014-085-031200-
CENTRAL UPPER MICHIGAN

CITY           SKY/WX    TMP DP  RH WIND       PRES   REMARKS
MANISTIQUE     CLOUDY    65  63  91 E6        29.93S
ESCANABA       CLOUDY    66  64  94 NE6       29.91R
MENOMINEE      CLOUDY    66  63  88 NE8       29.89R
SAWYER-GWINN   CLOUDY    61  61 100 N5        29.96S FOG
$$
MIZ001>003-009>011-084-031200-
WESTERN UPPER MICHIGAN

CITY           SKY/WX    TMP DP  RH WIND       PRES   REMARKS
IRON MOUNTAIN  CLOUDY    65  64  97 N7        29.93S FOG
HOUGHTON       FOG       62  61  96 CALM      29.97S VSB 1/4
COPPER HARBOR    N/A     57  54  89 CALM      29.98R
IRONWOOD       CLOUDY    55  55 100 CALM      29.96R VSB<1/4
$$

ABBREVIATIONS USED IN REMARKS
   TC - TEMPERATURE IN CELSIUS
  WCI - WIND CHILL INDEX
   HX - HEAT INDEX
  VSB - VISIBILITY



USA.gov is the U.S. government's official web portal to all federal, state and local government web resources and services.